QPF
0.03 0.04 0.04 0.04 0.03 0.03 0.03 0.04 0.03 0.03 0.02 0.02 0.02 0.02 0.03 0.03 0.04 0.04 0.05 0.05 0.04 0.04 0.04 0.03 0.03 0.03 0.03 0.03 0.04 0.04 0.05 0.05 0.06 0.05 0.03 0.02 0.01 0.01 0.01 0.01 0.01 0.01 0.01
0.02 0.02 0.02 0.02 0.02 0.02 0.02 0.02 0.02 0.02 0.01 0.01 0.01 0.01 0.02 0.02 0.03 0.04 0.05 0.05 0.04 0.04 0.03 0.03 0.02 0.02 0.03 0.03 0.04 0.04 0.05 0.05 0.06 0.05 0.04 0.03 0.02 0.02 0.01 0.02 0.02 0.02 0.01
0.01 0.01 0.01 0.01 0.01 0.01 0.01 0.01 0.02 0.02 0.01 0.01 0.01 0.01 0.01 0.02 0.03 0.03 0.04 0.03 0.03 0.03 0.03 0.03 0.03 0.02 0.02 0.03 0.03 0.04 0.05 0.05 0.05 0.05 0.04 0.03 0.03 0.03 0.02 0.03 0.02 0.02 0.01
0.01 0.01 0.01 0.01 0.01 0.01 0.01 0.01 0.01 0.01 0.01 0.01 0.01 0.01 0.01 0.01 0.02 0.02 0.02 0.02 0.03 0.03 0.03 0.03 0.03 0.03 0.03 0.03 0.03 0.03 0.03 0.04 0.04 0.05 0.05 0.05 0.04 0.04 0.03 0.02 0.02 0.02 0.02
0.01 0.02 0.02 0.01 0.01 0.01 0.01 0.01 0.01 0.01 0.01 0.01 0.01 0.01 0.01 0.01 0.02 0.02 0.02 0.02 0.03 0.03 0.03 0.03 0.03 0.04 0.04 0.04 0.03 0.03 0.03 0.04 0.04 0.04 0.04 0.04 0.04 0.04 0.03 0.02 0.02 0.02 0.03
0.02 0.02 0.02 0.02 0.02 0.02 0.02 0.01 0.01 0.01 0.01 0.01 0.01 0.02 0.02 0.03 0.04 0.04 0.03 0.03 0.03 0.04 0.04 0.03 0.04 0.04 0.03 0.03 0.03 0.03 0.03 0.03 0.03 0.03 0.03 0.03 0.03 0.03 0.03 0.03 0.03 0.03 0.03
0.02 0.03 0.02 0.02 0.02 0.02 0.01 0.01 0.01 0.01 0.01 0.01 0.02 0.03 0.03 0.04 0.04 0.04 0.04 0.03 0.03 0.03 0.03 0.03 0.03 0.03 0.02 0.02 0.02 0.02 0.02 0.02 0.02 0.03 0.03 0.02 0.02 0.02 0.03 0.03 0.03 0.03 0.03
0.03 0.03 0.03 0.03 0.02 0.01 0.01 0.01 0.01 0.01 0.01 0.02 0.03 0.03 0.04 0.04 0.04 0.03 0.04 0.03 0.03 0.04 0.03 0.03 0.03 0.02 0.02 0.02 0.02 0.01 0.01 0.01 0.01 0.01 0.02 0.02 0.02 0.02 0.02 0.03 0.03 0.04 0.03
0.01 0.02 0.02 0.01 0.01 0.01 0.01 0.01 0.01 0.01 0.01 0.02 0.02 0.02 0.03 0.03 0.03 0.03 0.03 0.03 0.03 0.03 0.03 0.02 0.02 0.02 0.02 0.02 0.02 0.01 0.01 0.01 0.01 0.01 0.01 0.01 0.01 0.01 0.02 0.02 0.03 0.03 0.03
0.01 0.01 0.01 0.01 0.01 0.01 0.01 0.01 0.01 0.01 0.02 0.02 0.02 0.03 0.02 0.02 0.02 0.02 0.02 0.02 0.02 0.03 0.02 0.02 0.02 0.02 0.02 0.02 0.02 0.02 0.02 0.01 0.01 0.01 0.01 0.01 0.01 0.01 0.01 0.02 0.03 0.04 0.03
0.01 0.01 0.01 0.01 0.01 0.01 0.01 0.01 0.01 0.01 0.02 0.02 0.02 0.02 0.02 0.01 0.02 0.02 0.02 0.02 0.02 0.02 0.02 0.01 0.01 0.01 0.01 0.02 0.02 0.02 0.02 0.02 0.01 0.01 0.01 0.01 0.01 0.01 0.02 0.02 0.03 0.04 0.04
0.01 0.01 0.01 0.01 0.01 0.01 0.01 0.01 0.01 0.01 0.02 0.02 0.02 0.02 0.02 0.02 0.02 0.02 0.02 0.02 0.02 0.01 0.01 0.01 0.01 0.01 0.01 0.01 0.01 0.01 0.01 0.01 0.01 0.01 0.01 0.01 0.01 0.02 0.02 0.02 0.03 0.03 0.03
0.01 0.01 0.01 0.01 0.02 0.02 0.02 0.02 0.02 0.02 0.02 0.03 0.02 0.02 0.02 0.02 0.01 0.01 0.01 0.01 0.01 0.01 0.01 0.01 0.01 0.01 0.00 0.00 0.00 0.01 0.01 0.01 0.01 0.01 0.01 0.01 0.01 0.02 0.02 0.03 0.03 0.03 0.03
0.01 0.01 0.01 0.01 0.01 0.01 0.01 0.02 0.02 0.02 0.02 0.02 0.02 0.02 0.01 0.01 0.01 0.01 0.01 0.01 0.01 0.01 0.01 0.00 0.00 0.00 0.00 0.00 0.00 0.00 0.01 0.01 0.01 0.01 0.01 0.01 0.02 0.02 0.02 0.03 0.03 0.03 0.02
0.01 0.01 0.01 0.01 0.01 0.01 0.01 0.01 0.01 0.01 0.01 0.01 0.01 0.01 0.01 0.01 0.01 0.02 0.02 0.02 0.02 0.01 0.01 0.01 0.00 0.00 0.00 0.00 0.00 0.01 0.01 0.01 0.01 0.01 0.02 0.02 0.02 0.02 0.02 0.03 0.03 0.03 0.02
0.01 0.01 0.01 0.01 0.01 0.01 0.00 0.00 0.00 0.00 0.00 0.01 0.01 0.01 0.01 0.01 0.01 0.01 0.01 0.01 0.01 0.01 0.01 0.01 0.00 0.00 0.00 0.01 0.01 0.01 0.01 0.01 0.01 0.01 0.02 0.02 0.02 0.02 0.03 0.03 0.03 0.03 0.02
0.01 0.00 0.00 0.00 0.00 0.00 0.00 0.00 0.00 0.00 0.00 0.00 0.00 0.01 0.01 0.01 0.01 0.01 0.01 0.01 0.01 0.01 0.01 0.01 0.00 0.00 0.01 0.01 0.01 0.01 0.01 0.01 0.01 0.01 0.02 0.02 0.02 0.02 0.03 0.03 0.03 0.03 0.03
0.01 0.01 0.01 0.01 0.00 0.00 0.00 0.00 0.00 0.00 0.00 0.00 0.00 0.00 0.00 0.01 0.01 0.01 0.01 0.01 0.01 0.00 0.01 0.01 0.01 0.01 0.01 0.01 0.01 0.01 0.01 0.01 0.01 0.01 0.01 0.02 0.02 0.03 0.03 0.02 0.02 0.02 0.03
0.01 0.01 0.00 0.00 0.00 0.00 0.00 0.00 0.00 0.00 0.00 0.00 0.00 0.00 0.00 0.00 0.00 0.00 0.00 0.01 0.01 0.01 0.01 0.01 0.01 0.01 0.01 0.01 0.01 0.02 0.02 0.02 0.01 0.01 0.01 0.01 0.02 0.02 0.02 0.02 0.02 0.02 0.03
0.00 0.00 0.00 0.00 0.00 0.00 0.00 0.00 0.00 0.00 0.00 0.00 0.00 0.00 0.00 0.00 0.00 0.00 0.00 0.01 0.01 0.01 0.01 0.01 0.01 0.01 0.01 0.02 0.02 0.02 0.02 0.02 0.01 0.01 0.01 0.01 0.02 0.02 0.02 0.02 0.02 0.03 0.02
0.00 0.00 0.00 0.00 0.00 0.00 0.00 0.00 0.00 0.00 0.00 0.00 0.00 0.00 0.01 0.01 0.01 0.00 0.00 0.01 0.01 0.01 0.01 0.01 0.01 0.01 0.01 0.01 0.02 0.02 0.02 0.02 0.01 0.01 0.01 0.01 0.02 0.02 0.02 0.02 0.02 0.02 0.02
0.00 0.00 0.00 0.00 0.00 0.00 0.00 0.00 0.00 0.00 0.00 0.00 0.00 0.00 0.00 0.01 0.01 0.00 0.01 0.01 0.01 0.01 0.01 0.01 0.01 0.01 0.01 0.02 0.02 0.02 0.02 0.01 0.01 0.01 0.02 0.02 0.02 0.02 0.02 0.02 0.02 0.02 0.02
0.00 0.00 0.00 0.00 0.00 0.00 0.00 0.00 0.00 0.00 0.00 0.00 0.00 0.00 0.00 0.01 0.01 0.01 0.01 0.01 0.01 0.01 0.01 0.01 0.01 0.01 0.01 0.01 0.02 0.02 0.02 0.02 0.02 0.02 0.02 0.02 0.02 0.02 0.02 0.02 0.02 0.02 0.02
0.00 0.00 0.00 0.00 0.00 0.00 0.00 0.00 0.00 0.00 0.00 0.01 0.01 0.01 0.01 0.01 0.01 0.01 0.01 0.01 0.01 0.01 0.01 0.01 0.01 0.01 0.01 0.01 0.01 0.01 0.01 0.01 0.02 0.02 0.02 0.02 0.02 0.02 0.02 0.02 0.02 0.02 0.02
0.00 0.00 0.00 0.00 0.00 0.00 0.00 0.00 0.00 0.01 0.01 0.01 0.01 0.01 0.01 0.01 0.01 0.01 0.01 0.01 0.01 0.01 0.01 0.01 0.01 0.01 0.01 0.01 0.01 0.01 0.01 0.01 0.02 0.02 0.02 0.02 0.02 0.02 0.02 0.02 0.02 0.02 0.02
0.00 0.00 0.00 0.00 0.00 0.00 0.00 0.01 0.01 0.00 0.00 0.00 0.00 0.01 0.01 0.01 0.01 0.01 0.01 0.01 0.01 0.01 0.01 0.01 0.00 0.01 0.01 0.01 0.00 0.00 0.01 0.01 0.02 0.02 0.03 0.03 0.02 0.02 0.02 0.02 0.02 0.02 0.02
MSLP
1032.16 1032.42 1032.68 1032.92 1033.13 1033.29 1033.40 1033.48 1033.53 1033.57 1033.59 1033.58 1033.53 1033.43 1033.26 1033.03 1032.74 1032.41 1032.06 1031.74 1031.46 1031.23 1031.06 1030.92 1030.77 1030.56 1030.23 1029.75 1029.07 1028.20 1027.14 1025.94 1024.63 1023.28 1021.95 1020.69 1019.53 1018.48 1017.54 1016.68 1015.88 1015.09 1014.29
1033.08 1033.31 1033.52 1033.69 1033.82 1033.91 1033.95 1033.97 1033.97 1033.96 1033.94 1033.89 1033.80 1033.66 1033.46 1033.19 1032.87 1032.51 1032.13 1031.77 1031.46 1031.20 1031.01 1030.85 1030.69 1030.49 1030.20 1029.76 1029.15 1028.35 1027.36 1026.20 1024.93 1023.58 1022.21 1020.88 1019.61 1018.43 1017.34 1016.33 1015.37 1014.44 1013.51
1033.79 1034.00 1034.17 1034.30 1034.37 1034.39 1034.38 1034.35 1034.29 1034.23 1034.16 1034.06 1033.93 1033.76 1033.53 1033.24 1032.90 1032.53 1032.14 1031.77 1031.44 1031.17 1030.94 1030.75 1030.56 1030.35 1030.05 1029.63 1029.05 1028.29 1027.36 1026.27 1025.04 1023.72 1022.36 1020.99 1019.65 1018.37 1017.16 1016.00 1014.90 1013.83 1012.77
1034.23 1034.44 1034.60 1034.69 1034.73 1034.72 1034.67 1034.60 1034.50 1034.40 1034.28 1034.14 1033.97 1033.76 1033.51 1033.21 1032.87 1032.51 1032.13 1031.77 1031.44 1031.14 1030.88 1030.64 1030.41 1030.14 1029.81 1029.37 1028.79 1028.06 1027.17 1026.13 1024.96 1023.70 1022.36 1021.00 1019.63 1018.29 1016.99 1015.72 1014.49 1013.30 1012.12
1034.45 1034.65 1034.80 1034.89 1034.92 1034.90 1034.84 1034.75 1034.63 1034.50 1034.34 1034.16 1033.96 1033.72 1033.45 1033.15 1032.82 1032.47 1032.12 1031.77 1031.44 1031.13 1030.83 1030.54 1030.24 1029.91 1029.51 1029.02 1028.42 1027.69 1026.83 1025.84 1024.73 1023.53 1022.25 1020.92 1019.56 1018.20 1016.84 1015.50 1014.18 1012.89 1011.61
1034.47 1034.68 1034.84 1034.94 1034.98 1034.98 1034.93 1034.84 1034.72 1034.57 1034.39 1034.19 1033.95 1033.69 1033.40 1033.10 1032.77 1032.44 1032.11 1031.77 1031.44 1031.11 1030.78 1030.43 1030.05 1029.64 1029.16 1028.60 1027.96 1027.22 1026.38 1025.43 1024.39 1023.26 1022.05 1020.78 1019.46 1018.11 1016.74 1015.36 1013.98 1012.62 1011.27
1034.39 1034.60 1034.76 1034.88 1034.96 1034.98 1034.97 1034.91 1034.81 1034.66 1034.47 1034.24 1033.98 1033.68 1033.38 1033.06 1032.73 1032.41 1032.08 1031.75 1031.42 1031.07 1030.69 1030.28 1029.83 1029.33 1028.77 1028.15 1027.46 1026.70 1025.87 1024.97 1023.99 1022.94 1021.81 1020.62 1019.36 1018.04 1016.69 1015.30 1013.90 1012.50 1011.11
1034.25 1034.46 1034.64 1034.78 1034.89 1034.96 1034.99 1034.97 1034.89 1034.75 1034.56 1034.31 1034.02 1033.70 1033.36 1033.02 1032.68 1032.34 1032.01 1031.68 1031.33 1030.96 1030.54 1030.07 1029.55 1028.98 1028.35 1027.66 1026.94 1026.16 1025.35 1024.49 1023.57 1022.60 1021.56 1020.44 1019.25 1017.99 1016.67 1015.30 1013.90 1012.49 1011.08
1034.10 1034.31 1034.50 1034.66 1034.80 1034.91 1034.98 1035.00 1034.95 1034.82 1034.63 1034.37 1034.05 1033.69 1033.32 1032.94 1032.58 1032.22 1031.88 1031.52 1031.16 1030.75 1030.30 1029.79 1029.21 1028.58 1027.90 1027.17 1026.42 1025.65 1024.85 1024.03 1023.17 1022.27 1021.30 1020.26 1019.13 1017.93 1016.65 1015.31 1013.93 1012.53 1011.11
1033.93 1034.15 1034.34 1034.52 1034.68 1034.82 1034.92 1034.96 1034.93 1034.82 1034.62 1034.34 1034.00 1033.61 1033.21 1032.80 1032.40 1032.02 1031.65 1031.28 1030.89 1030.46 1029.98 1029.43 1028.83 1028.16 1027.45 1026.70 1025.94 1025.17 1024.40 1023.61 1022.80 1021.95 1021.03 1020.04 1018.97 1017.81 1016.57 1015.27 1013.91 1012.52 1011.12
1033.72 1033.94 1034.14 1034.32 1034.50 1034.66 1034.77 1034.83 1034.81 1034.69 1034.49 1034.20 1033.83 1033.42 1032.98 1032.55 1032.13 1031.72 1031.34 1030.95 1030.54 1030.10 1029.61 1029.05 1028.43 1027.75 1027.03 1026.29 1025.53 1024.77 1024.01 1023.25 1022.46 1021.64 1020.75 1019.79 1018.74 1017.60 1016.38 1015.10 1013.77 1012.40 1011.01
1033.43 1033.65 1033.85 1034.05 1034.23 1034.38 1034.50 1034.55 1034.53 1034.41 1034.20 1033.89 1033.52 1033.09 1032.65 1032.20 1031.77 1031.36 1030.97 1030.58 1030.18 1029.74 1029.25 1028.69 1028.08 1027.41 1026.70 1025.97 1025.22 1024.47 1023.72 1022.96 1022.17 1021.35 1020.45 1019.48 1018.42 1017.27 1016.05 1014.77 1013.44 1012.09 1010.72
1033.02 1033.26 1033.47 1033.67 1033.84 1033.99 1034.10 1034.14 1034.10 1033.97 1033.75 1033.44 1033.07 1032.65 1032.21 1031.78 1031.37 1030.98 1030.61 1030.24 1029.85 1029.43 1028.96 1028.43 1027.83 1027.19 1026.50 1025.78 1025.04 1024.29 1023.53 1022.75 1021.94 1021.07 1020.14 1019.12 1018.01 1016.82 1015.57 1014.26 1012.93 1011.58 1010.22
1032.49 1032.75 1032.97 1033.17 1033.35 1033.49 1033.57 1033.60 1033.54 1033.40 1033.17 1032.87 1032.51 1032.12 1031.72 1031.33 1030.96 1030.62 1030.28 1029.96 1029.61 1029.23 1028.80 1028.30 1027.74 1027.12 1026.45 1025.74 1025.01 1024.25 1023.46 1022.64 1021.77 1020.83 1019.82 1018.72 1017.53 1016.28 1014.96 1013.61 1012.25 1010.89 1009.54
1031.85 1032.13 1032.38 1032.59 1032.77 1032.90 1032.97 1032.97 1032.90 1032.75 1032.52 1032.24 1031.91 1031.57 1031.23 1030.90 1030.60 1030.32 1030.05 1029.79 1029.50 1029.17 1028.78 1028.33 1027.81 1027.22 1026.57 1025.87 1025.12 1024.34 1023.50 1022.62 1021.67 1020.64 1019.52 1018.32 1017.03 1015.68 1014.29 1012.88 1011.48 1010.09 1008.74
1031.13 1031.45 1031.72 1031.95 1032.13 1032.26 1032.32 1032.30 1032.22 1032.06 1031.85 1031.59 1031.31 1031.02 1030.75 1030.50 1030.29 1030.09 1029.91 1029.72 1029.50 1029.24 1028.90 1028.50 1028.01 1027.44 1026.81 1026.10 1025.34 1024.51 1023.62 1022.66 1021.61 1020.48 1019.25 1017.93 1016.54 1015.10 1013.62 1012.15 1010.70 1009.29 1007.92
1030.38 1030.73 1031.03 1031.29 1031.48 1031.60 1031.65 1031.63 1031.54 1031.38 1031.18 1030.96 1030.72 1030.50 1030.31 1030.15 1030.02 1029.92 1029.83 1029.72 1029.57 1029.37 1029.09 1028.73 1028.27 1027.72 1027.09 1026.38 1025.58 1024.71 1023.75 1022.71 1021.57 1020.33 1019.00 1017.58 1016.09 1014.56 1013.02 1011.49 1010.00 1008.57 1007.21
1029.62 1030.00 1030.33 1030.61 1030.81 1030.93 1030.98 1030.95 1030.85 1030.70 1030.52 1030.32 1030.14 1029.99 1029.87 1029.80 1029.77 1029.76 1029.75 1029.72 1029.65 1029.50 1029.27 1028.94 1028.50 1027.96 1027.33 1026.59 1025.76 1024.84 1023.82 1022.70 1021.48 1020.16 1018.74 1017.24 1015.69 1014.10 1012.52 1010.96 1009.46 1008.03 1006.68
1028.87 1029.27 1029.63 1029.92 1030.13 1030.25 1030.29 1030.25 1030.15 1030.01 1029.84 1029.67 1029.54 1029.45 1029.41 1029.42 1029.47 1029.54 1029.62 1029.66 1029.64 1029.54 1029.34 1029.03 1028.61 1028.07 1027.42 1026.65 1025.78 1024.81 1023.74 1022.56 1021.28 1019.90 1018.43 1016.89 1015.30 1013.70 1012.11 1010.57 1009.09 1007.70 1006.39
1028.13 1028.54 1028.90 1029.20 1029.41 1029.53 1029.56 1029.51 1029.41 1029.26 1029.11 1028.98 1028.88 1028.85 1028.88 1028.96 1029.09 1029.24 1029.38 1029.47 1029.50 1029.44 1029.26 1028.96 1028.53 1027.97 1027.29 1026.50 1025.59 1024.57 1023.45 1022.23 1020.91 1019.50 1018.02 1016.48 1014.91 1013.33 1011.79 1010.30 1008.89 1007.56 1006.34
1027.37 1027.77 1028.14 1028.43 1028.64 1028.75 1028.76 1028.70 1028.59 1028.45 1028.31 1028.21 1028.16 1028.18 1028.27 1028.42 1028.61 1028.82 1029.01 1029.15 1029.21 1029.16 1028.99 1028.68 1028.22 1027.64 1026.93 1026.08 1025.13 1024.07 1022.92 1021.67 1020.34 1018.93 1017.46 1015.96 1014.45 1012.95 1011.49 1010.10 1008.80 1007.59 1006.48
1026.58 1026.97 1027.33 1027.61 1027.80 1027.89 1027.89 1027.82 1027.70 1027.57 1027.45 1027.37 1027.37 1027.44 1027.59 1027.80 1028.05 1028.31 1028.55 1028.72 1028.79 1028.73 1028.54 1028.20 1027.72 1027.08 1026.32 1025.43 1024.43 1023.33 1022.15 1020.89 1019.56 1018.18 1016.76 1015.33 1013.90 1012.51 1011.18 1009.92 1008.76 1007.70 1006.73
1025.76 1026.14 1026.48 1026.74 1026.91 1026.98 1026.97 1026.89 1026.77 1026.65 1026.55 1026.52 1026.56 1026.69 1026.90 1027.17 1027.47 1027.77 1028.03 1028.20 1028.27 1028.20 1027.97 1027.59 1027.04 1026.35 1025.52 1024.58 1023.53 1022.39 1021.18 1019.92 1018.61 1017.27 1015.92 1014.58 1013.26 1012.00 1010.81 1009.71 1008.70 1007.80 1007.00
1024.94 1025.31 1025.62 1025.86 1026.01 1026.06 1026.04 1025.95 1025.85 1025.75 1025.69 1025.70 1025.80 1025.98 1026.25 1026.57 1026.91 1027.24 1027.51 1027.69 1027.73 1027.62 1027.34 1026.89 1026.27 1025.51 1024.61 1023.60 1022.49 1021.32 1020.09 1018.83 1017.55 1016.26 1014.98 1013.74 1012.54 1011.41 1010.37 1009.42 1008.57 1007.83 1007.19
1024.16 1024.51 1024.80 1025.02 1025.15 1025.19 1025.16 1025.09 1025.00 1024.94 1024.93 1024.99 1025.15 1025.39 1025.71 1026.08 1026.45 1026.79 1027.06 1027.21 1027.21 1027.04 1026.69 1026.16 1025.46 1024.61 1023.64 1022.56 1021.40 1020.19 1018.95 1017.70 1016.44 1015.21 1014.01 1012.86 1011.78 1010.77 1009.86 1009.06 1008.36 1007.77 1007.28
1023.46 1023.79 1024.07 1024.28 1024.40 1024.44 1024.41 1024.36 1024.31 1024.28 1024.33 1024.45 1024.66 1024.97 1025.33 1025.73 1026.11 1026.45 1026.69 1026.79 1026.73 1026.48 1026.04 1025.42 1024.64 1023.70 1022.65 1021.51 1020.31 1019.07 1017.83 1016.59 1015.37 1014.20 1013.07 1012.01 1011.03 1010.13 1009.34 1008.65 1008.08 1007.61 1007.25
Thickness
5455 5456 5456 5456 5456 5456 5455 5454 5454 5454 5453 5452 5451 5451 5451 5450 5449 5448 5446 5444 5442 5440 5438 5435 5431 5428 5424 5421 5418 5414 5410 5406 5406 5411 5408 5405 5401 5398 5395 5393 5391 5390 5389
5443 5444 5444 5444 5444 5443 5442 5442 5441 5441 5440 5439 5438 5438 5438 5436 5435 5433 5432 5430 5428 5426 5423 5420 5417 5414 5410 5406 5403 5400 5396 5392 5389 5390 5391 5387 5384 5380 5378 5376 5375 5373 5372
5431 5432 5432 5432 5432 5431 5430 5429 5429 5428 5427 5426 5425 5424 5423 5422 5421 5419 5418 5416 5414 5411 5408 5405 5402 5398 5395 5391 5388 5385 5381 5377 5373 5370 5372 5369 5366 5363 5360 5359 5358 5357 5356
5420 5420 5420 5420 5419 5419 5418 5417 5416 5415 5414 5413 5411 5410 5409 5408 5407 5405 5403 5402 5399 5396 5393 5389 5386 5383 5380 5376 5373 5369 5365 5361 5358 5354 5353 5352 5349 5346 5342 5342 5343 5342 5341
5409 5409 5408 5408 5408 5407 5406 5405 5404 5402 5401 5400 5399 5397 5396 5394 5393 5392 5390 5387 5384 5381 5378 5375 5372 5368 5364 5360 5357 5353 5349 5345 5341 5338 5337 5335 5333 5329 5325 5324 5323 5325 5327
5399 5398 5398 5397 5397 5396 5394 5394 5392 5390 5389 5386 5385 5383 5382 5380 5379 5377 5374 5371 5368 5366 5364 5361 5358 5354 5350 5346 5342 5337 5333 5329 5326 5322 5320 5317 5315 5311 5309 5306 5305 5306 5311
5389 5388 5387 5386 5386 5384 5383 5382 5380 5378 5376 5373 5371 5369 5367 5365 5364 5362 5359 5356 5352 5350 5347 5345 5343 5339 5335 5331 5328 5324 5319 5314 5310 5305 5303 5300 5297 5295 5292 5290 5288 5287 5289
5380 5378 5377 5376 5375 5373 5371 5369 5367 5365 5363 5361 5358 5356 5353 5350 5348 5347 5344 5341 5338 5335 5331 5329 5326 5324 5320 5316 5313 5309 5305 5301 5297 5292 5287 5284 5281 5278 5274 5272 5270 5271 5273
5372 5370 5368 5366 5365 5362 5360 5357 5356 5354 5351 5349 5346 5342 5339 5336 5334 5332 5330 5327 5324 5320 5317 5314 5310 5308 5305 5302 5298 5294 5292 5288 5283 5278 5274 5270 5267 5264 5260 5257 5255 5254 5257
5363 5361 5359 5357 5354 5352 5349 5347 5345 5342 5340 5337 5334 5329 5325 5323 5320 5318 5315 5312 5310 5307 5304 5300 5296 5294 5291 5287 5283 5279 5277 5274 5269 5265 5261 5258 5254 5251 5247 5242 5240 5238 5237
5355 5352 5350 5347 5344 5342 5339 5336 5333 5331 5328 5324 5322 5318 5313 5310 5307 5305 5302 5298 5295 5293 5290 5287 5283 5280 5278 5273 5269 5264 5261 5257 5253 5250 5247 5245 5242 5238 5234 5230 5226 5223 5221
5346 5343 5340 5338 5334 5332 5328 5325 5322 5319 5316 5312 5309 5306 5302 5298 5295 5293 5290 5286 5283 5279 5276 5272 5269 5267 5264 5259 5254 5250 5246 5242 5237 5235 5233 5231 5228 5225 5221 5217 5214 5211 5209
5337 5334 5331 5328 5325 5321 5317 5314 5310 5307 5303 5301 5297 5294 5292 5288 5284 5281 5278 5275 5272 5267 5263 5260 5256 5253 5249 5244 5240 5236 5231 5227 5223 5220 5218 5216 5212 5209 5207 5205 5204 5203 5202
5328 5325 5322 5319 5315 5311 5307 5303 5299 5296 5292 5289 5286 5282 5279 5277 5273 5270 5266 5263 5260 5255 5251 5247 5243 5239 5235 5230 5225 5221 5216 5212 5208 5205 5203 5201 5198 5196 5194 5192 5191 5191 5192
5321 5317 5313 5309 5305 5301 5297 5292 5289 5286 5281 5278 5274 5270 5267 5265 5262 5258 5253 5250 5246 5242 5237 5232 5228 5224 5220 5215 5211 5207 5203 5200 5196 5193 5190 5188 5187 5184 5182 5180 5178 5177 5175
5313 5308 5304 5300 5295 5291 5287 5284 5280 5277 5273 5269 5264 5260 5256 5253 5250 5246 5242 5238 5233 5228 5222 5216 5212 5208 5204 5200 5196 5194 5191 5187 5184 5181 5178 5176 5174 5172 5170 5168 5166 5164 5164
5305 5301 5295 5291 5286 5281 5277 5273 5270 5268 5263 5258 5253 5249 5245 5242 5238 5233 5229 5224 5219 5213 5206 5201 5197 5193 5189 5185 5182 5179 5177 5174 5171 5169 5166 5164 5162 5160 5158 5157 5156 5154 5153
5298 5293 5287 5282 5277 5272 5267 5263 5258 5254 5250 5246 5242 5237 5233 5229 5225 5220 5216 5210 5204 5199 5192 5187 5183 5179 5175 5172 5169 5166 5164 5162 5160 5158 5155 5153 5150 5149 5148 5146 5145 5144 5144
5291 5285 5280 5274 5269 5264 5258 5253 5248 5242 5238 5234 5230 5225 5221 5217 5212 5207 5202 5194 5189 5184 5180 5174 5170 5166 5163 5160 5157 5154 5152 5151 5149 5147 5145 5143 5141 5139 5138 5137 5136 5136 5135
5284 5279 5273 5267 5261 5255 5249 5244 5239 5233 5228 5223 5219 5214 5210 5204 5199 5194 5187 5181 5176 5171 5167 5163 5159 5155 5151 5149 5146 5143 5141 5140 5139 5137 5135 5133 5132 5130 5130 5129 5128 5128 5128
5278 5272 5266 5259 5253 5247 5242 5236 5230 5225 5219 5214 5210 5204 5201 5195 5188 5182 5176 5171 5165 5161 5156 5152 5148 5144 5141 5138 5135 5133 5131 5129 5128 5127 5125 5124 5123 5122 5122 5121 5121 5121 5122
5272 5265 5259 5252 5246 5240 5234 5228 5221 5215 5210 5204 5200 5194 5190 5183 5177 5171 5166 5161 5156 5151 5146 5142 5138 5134 5130 5127 5125 5123 5121 5120 5119 5117 5116 5115 5115 5114 5114 5115 5115 5116 5117
5264 5257 5251 5244 5238 5231 5224 5218 5212 5206 5200 5195 5189 5184 5178 5172 5167 5161 5156 5151 5146 5141 5136 5132 5128 5125 5122 5119 5116 5114 5112 5111 5110 5108 5107 5107 5107 5108 5108 5109 5110 5110 5111
5257 5250 5243 5236 5228 5222 5216 5209 5203 5197 5191 5185 5180 5174 5168 5163 5157 5152 5147 5142 5137 5132 5127 5123 5120 5117 5114 5111 5109 5107 5105 5104 5102 5101 5101 5100 5101 5102 5102 5103 5104 5105 5107
5248 5241 5234 5227 5220 5213 5207 5200 5194 5188 5182 5176 5170 5165 5159 5153 5148 5142 5137 5132 5127 5123 5119 5115 5112 5110 5107 5105 5103 5101 5100 5098 5097 5096 5096 5095 5096 5096 5097 5098 5099 5101 5103
5238 5231 5224 5217 5210 5204 5198 5192 5186 5180 5173 5167 5161 5156 5150 5144 5139 5133 5128 5123 5119 5115 5111 5108 5105 5103 5101 5099 5097 5096 5094 5094 5093 5092 5092 5091 5091 5092 5093 5094 5096 5097 5099